HR1LRC-21 Weather Reports


Display with metric or nautical units.
time (UTC)temp
F
wind
direction
speed
MPH
gust
MPH
rain 1hr
in
rain 24hr
in
rain mn
in
humidity
%
barometer
mb
20260502203554 80 181 6.0 6.0 0.00 0.00 0.00 39 1008.0
20260502202553 80 153 4.0 5.0 0.00 0.00 0.00 40 1008.0
20260502201553 81 153 4.0 5.0 0.00 0.00 0.00 39 1008.0
20260502200552 81 153 4.0 5.0 0.00 0.00 0.00 39 1008.0
20260502195552 80 153 4.0 5.0 0.00 0.00 0.00 38 1008.0
20260502194551 80 153 4.0 5.0 0.00 0.00 0.00 39 1008.0
20260502193550 80 153 4.0 5.0 0.00 0.00 0.00 39 1008.0
20260502192550 80 157 4.0 4.0 0.00 0.00 0.00 41 1009.0
20260502191549 80 157 4.0 4.0 0.00 0.00 0.00 40 1009.0
20260502190548 80 157 4.0 4.0 0.00 0.00 0.00 40 1009.0
20260502185548 80 157 4.0 4.0 0.00 0.00 0.00 39 1009.0
20260502184547 79 157 4.0 4.0 0.00 0.00 0.00 41 1010.0
20260502183546 79 157 4.0 4.0 0.00 0.00 0.00 41 1010.0
20260502182546 78 159 4.0 3.0 0.00 0.00 0.00 44 1011.0
20260502181545 78 159 4.0 3.0 0.00 0.00 0.00 44 1011.0
20260502180545 78 159 4.0 3.0 0.00 0.00 0.00 44 1011.0
20260502163537 76 158 4.0 3.0 0.00 0.00 0.00 51 1013.0
20260502162537 74 157 3.0 2.0 0.00 0.00 0.00 56 1014.0
20260502161536 73 157 3.0 2.0 0.00 0.00 0.00 56 1013.0
20260502160535 73 157 3.0 2.0 0.00 0.00 0.00 56 1013.0
20260502151532 71 162 3.0 1.0 0.00 0.00 0.00 60 1014.0
20260502150532 71 162 3.0 1.0 0.00 0.00 0.00 60 1014.0
20260502130524 69 215 1.0 3.0 0.00 0.00 0.00 62 1013.0
20260502123522 69 215 1.0 3.0 0.00 0.00 0.00 62 1013.0
20260502122521 69 215 1.0 3.0 0.00 0.00 0.00 62 1013.0
20260502121521 69 215 1.0 3.0 0.00 0.00 0.00 62 1013.0
20260502120520 69 215 1.0 3.0 0.00 0.00 0.00 62 1013.0
20260502115519 69 215 1.0 3.0 0.00 0.00 0.00 62 1013.0
20260502114519 69 215 1.0 3.0 0.00 0.00 0.00 62 1013.0
20260502113518 69 215 1.0 3.0 0.00 0.00 0.00 62 1013.0
20260502112518 69 215 1.0 3.0 0.00 0.00 0.00 62 1013.0
20260502111517 69 215 1.0 3.0 0.00 0.00 0.00 62 1013.0
20260502110516 69 215 1.0 3.0 0.00 0.00 0.00 62 1013.0
20260502105516 69 215 1.0 3.0 0.00 0.00 0.00 62 1013.0
20260502104515 69 215 1.0 3.0 0.00 0.00 0.00 62 1013.0
20260502103514 69 215 1.0 3.0 0.00 0.00 0.00 62 1013.0
20260502102514 69 215 1.0 3.0 0.00 0.00 0.00 62 1013.0
20260502101513 69 215 1.0 3.0 0.00 0.00 0.00 62 1012.0
20260502100513 69 215 1.0 3.0 0.00 0.00 0.00 62 1012.0
20260502091510 69 215 1.0 3.0 0.00 0.00 0.00 62 1012.0
20260502090509 69 215 1.0 3.0 0.00 0.00 0.00 62 1012.0
20260502071502 69 215 1.0 3.0 0.00 0.00 0.00 62 1013.0
20260502070501 69 215 1.0 3.0 0.00 0.00 0.00 62 1013.0
20260502065500 69 215 1.0 3.0 0.00 0.00 0.00 62 1012.0
20260502064500 69 215 1.0 3.0 0.00 0.00 0.00 62 1012.0
20260502063459 69 215 1.0 3.0 0.00 0.00 0.00 62 1012.0
20260502062459 69 215 1.0 3.0 0.00 0.00 0.00 62 1013.0
20260502061458 69 215 2.0 3.0 0.00 0.00 0.00 62 1013.0
20260502060457 73 196 3.0 5.0 0.00 0.00 0.00 56 1013.0
20260502055457 73 196 3.0 5.0 0.00 0.00 0.00 56 1013.0
20260502054456 73 196 3.0 5.0 0.00 0.00 0.00 56 1013.0
20260502053455 73 196 3.0 5.0 0.00 0.00 0.00 56 1013.0
20260502052455 73 196 3.0 5.0 0.00 0.00 0.00 56 1014.0
20260502051454 73 196 3.0 5.0 0.00 0.00 0.00 56 1013.0
20260502050453 73 196 3.0 5.0 0.00 0.00 0.00 56 1013.0
20260502045453 73 196 3.0 5.0 0.00 0.00 0.00 56 1013.0
20260502044452 73 196 3.0 5.0 0.00 0.00 0.00 56 1013.0
20260502043451 73 196 3.0 5.0 0.00 0.00 0.00 56 1013.0
20260502041450 73 196 3.0 5.0 0.00 0.00 0.00 56 1012.0
20260502040449 73 196 3.0 5.0 0.00 0.00 0.00 56 1012.0
20260502035449 73 196 3.0 5.0 0.00 0.00 0.00 56 1012.0
20260502034448 73 196 3.0 5.0 0.00 0.00 0.00 56 1012.0
20260502033448 73 196 3.0 5.0 0.00 0.00 0.00 56 1012.0
20260502032447 73 196 3.0 5.0 0.00 0.00 0.00 56 1012.0
20260502031446 73 196 3.0 5.0 0.00 0.00 0.00 56 1012.0
20260502030446 73 196 3.0 5.0 0.00 0.00 0.00 56 1012.0
20260502025445 73 196 3.0 5.0 0.00 0.00 0.00 56 1012.0
20260502024444 73 196 3.0 5.0 0.00 0.00 0.00 56 1012.0
20260502023444 73 196 3.0 5.0 0.00 0.00 0.00 56 1012.0
20260502022443 73 196 3.0 5.0 0.00 0.00 0.00 56 1012.0
20260502021442 73 196 3.0 5.0 0.00 0.00 0.00 56 1011.0
20260502020442 73 196 3.0 5.0 0.00 0.00 0.00 56 1011.0
20260502015441 73 196 3.0 5.0 0.00 0.00 0.00 56 1011.0
20260502014440 73 196 3.0 6.0 0.00 0.00 0.00 56 1011.0
20260502013440 78 207 4.0 5.0 0.00 0.00 0.00 39 1011.0
20260502012439 78 207 4.0 5.0 0.00 0.00 0.00 39 1011.0
20260502011438 78 207 4.0 5.0 0.00 0.00 0.00 39 1010.0
20260502010438 78 207 4.0 5.0 0.00 0.00 0.00 39 1010.0
20260502005437 78 207 4.0 5.0 0.00 0.00 0.00 39 1010.0
20260502004436 78 207 4.0 5.0 0.00 0.00 0.00 39 1009.0
20260502003436 78 207 4.0 5.0 0.00 0.00 0.00 39 1009.0
20260502002435 78 207 4.0 5.0 0.00 0.00 0.00 39 1009.0
20260502001434 78 207 4.0 5.0 0.00 0.00 0.00 39 1008.0
20260502000434 78 207 4.0 5.0 0.00 0.00 0.00 39 1008.0
20260501235433 78 207 4.0 5.0 0.00 0.00 0.00 39 1008.0
20260501234433 78 207 4.0 5.0 0.00 0.00 0.00 39 1009.0
20260501233432 78 207 4.0 5.0 0.00 0.00 0.00 39 1009.0
20260501232431 78 207 4.0 5.0 0.00 0.00 0.00 39 1009.0
20260501231431 78 207 4.0 5.0 0.00 0.00 0.00 39 1008.0
20260501230430 78 207 4.0 5.0 0.00 0.00 0.00 39 1008.0
20260501225430 78 207 4.0 5.0 0.00 0.00 0.00 39 1007.0
20260501224429 78 207 4.0 5.0 0.00 0.00 0.00 39 1008.0
20260501223428 78 207 4.0 5.0 0.00 0.00 0.00 39 1008.0
20260501222428 77 188 5.0 6.0 0.00 0.00 0.00 38 1009.0
20260501221427 78 188 5.0 6.0 0.00 0.00 0.00 36 1008.0
20260501220426 78 188 5.0 6.0 0.00 0.00 0.00 36 1008.0
20260501215426 78 188 5.0 6.0 0.00 0.00 0.00 35 1008.0
20260501214425 78 188 5.0 6.0 0.00 0.00 0.00 35 1008.0
20260501213425 78 188 5.0 6.0 0.00 0.00 0.00 35 1008.0
20260501212424 79 167 5.0 5.0 0.00 0.00 0.00 35 1009.0
20260501211423 79 167 5.0 5.0 0.00 0.00 0.00 33 1008.0
20260501210423 79 167 5.0 5.0 0.00 0.00 0.00 33 1008.0
20260501205422 79 167 5.0 5.0 0.00 0.00 0.00 32 1007.0
20260501204421 79 167 5.0 5.0 0.00 0.00 0.00 33 1007.0